Regional Weather Roundup
Issued by NWS

Home | Current Version | Previous Version | Text Only | Print | Product List | Glossary On
Versions: 1 2 3 4 5 6 7 8 9 10 11 12 13 14 15 16 17 18 19 20 21 22 23 24 25 26 27 28 29 30 31 32 33 34 35 36 37 38 39 40 41 42 43 44 45 46 47 48 49 50
000
ASUS45 KABQ 121610
RWRNM
NEW MEXICO REGIONAL WEATHER ROUNDUP
NATIONAL WEATHER SERVICE ALBUQUERQUE NM
900 AM MST FRI FEB 12 2016

NOTE: "FAIR" MEANS FEW OR NO CLOUDS BELOW 12,000 FEET AGL WITH NO
       SIGNIFICANT WEATHER OR OBSTRUCTIONS TO VISION.

      THIS PRODUCT IS RELEASED AS TWO VERSIONS.  ONE VERSION NEAR
      THE TOP OF THE HOUR CONTAINING PRELIMINARY DATA FROM ALBUQUERQUE
      AND OTHER STATIONS.  A FINAL VERSION WITH ADDITIONAL DATA IS
      ISSUED ABOUT 10 MINUTES AFTER THE HOUR.

NMZ501-503-504-510>518-121700-
NORTHWEST PLATEAU/NORTHCENTRAL MOUNTAINS

CITY           SKY/WX    TMP DP  RH WIND       PRES   REMARKS
FARMINGTON     CLOUDY    33  25  72 E6        30.44R WCI  28
LOS ALAMOS     SUNNY     42  17  36 N7        30.44R
SANTA FE       SUNNY     40  19  43 N12       30.41R WCI  33
TAOS           CLOUDY    36  21  55 N3        30.46S
ANGEL FIRE     FAIR      15  10  79 CALM      30.48S

$$
NMZ402-403-502-505>509-121700-
WESTCENTRAL MOUNTAINS/SOUTHWEST MOUNTAINS

CITY           SKY/WX    TMP DP  RH WIND       PRES   REMARKS
GALLUP         SUNNY     32  21  64 CALM      30.45S
GRANTS         SUNNY     34  17  50 NW9       30.46S WCI  26
SILVER CITY      N/A     55  14  19 N3        30.38S

$$
NMZ407-409-411-412-121700-
SOUTHERN DESERTS

CITY           SKY/WX    TMP DP  RH WIND       PRES   REMARKS
LORDSBURG      FAIR      39  18  41 CALM      30.35R
DEMING         SUNNY     49  16  26 CALM      30.35R
LAS CRUCES     SUNNY     58  14  18 N12       30.35S
HOLLOMAN AFB   CLOUDY    46  13  27 S1        30.34R
ALAMOGORDO     SUNNY     46  19  34 S3        30.35R
T OR C         SUNNY     48  14  25 E3        30.38R

$$
NMZ519>523-121700-
CENTRAL VALLEYS/CENTRAL HIGHLANDS

CITY           SKY/WX    TMP DP  RH WIND       PRES   REMARKS
ALBUQUERQUE    SUNNY     42  20  41 NW6       30.42R
DOUBLE EAGLE   SUNNY     45  21  39 N5        30.43R
MORIARTY ARPT  FAIR      44  21  40 NW6       30.42S
CLINES CORNERS SUNNY     46  17  31 SE7       30.39S
BELEN          FAIR      44  18  35 N5        30.42R
SOCORRO        FAIR      43  13  30 N10       30.41R

$$
NMZ524>526-539-540-121700-
SOUTHCENTRAL MOUNTAINS

CITY           SKY/WX    TMP DP  RH WIND       PRES   REMARKS
RUIDOSO          N/A     54   9  16 NW12      30.42R

$$
NMZ527>531-121700-
NORTHEAST HIGHLANDS/NORTHEAST PLAINS

CITY           SKY/WX    TMP DP  RH WIND       PRES   REMARKS
LAS VEGAS      SUNNY     43  20  39 NE6       30.42R
RATON          SUNNY     40  23  50 E5        30.40R
CLAYTON        SUNNY     51  25  36 SE7       30.38R

$$
NMZ532>537-121700-
EASTCENTRAL PLAINS

CITY           SKY/WX    TMP DP  RH WIND       PRES   REMARKS
TUCUMCARI      SUNNY     52  24  33 N10       30.36R
CANNON AFB     SUNNY     49  25  39 NE18      30.31R
CLOVIS AIRPORT SUNNY     48  25  40 NE16      30.33R

$$
NMZ028-029-538-121700-
SOUTHEAST PLAINS

CITY           SKY/WX    TMP DP  RH WIND       PRES   REMARKS
ROSWELL        SUNNY     53  22  29 N12       30.33R
ARTESIA        SUNNY     52  23  32 N15       30.35R
CARLSBAD       SUNNY     52  20  28 N17       30.33R
HOBBS          SUNNY     55  23  28 CALM      30.32R


$$




USA.gov is the U.S. government's official web portal to all federal, state and local government web resources and services.